Location: PSU-Greenbush Astrophysical Observatory
(37.5140°N, 94.9880°W)
Time: 08:16:12
(UTC-06:00)

Courier 1B Rocket - Visible Passes

Search period start: 20 January 2020 00:00
Search period end: 30 January 2020 00:00
Orbit: 920 x 1202 km, 28.2° (Epoch: 19 January)

Date Brightness Start Highest point End Pass type
(mag) Time Alt. Az. Time Alt. Az. Time Alt. Az.
20 Jan 7.2 18:57:53 10° WSW 19:01:28 16° SSW 19:05:05 10° SSE visible
21 Jan 7.2 17:56:13 10° WSW 18:00:45 21° SSW 18:05:16 10° SSE visible
22 Jan 7.6 18:51:11 10° SW 18:52:29 11° SSW 18:53:45 10° SSW visible
